Home   Weather   Brandon   Past weeks

Flag for Canada Past Weather in Brandon, Manitoba, Canada — Yesterday and Last 2 Weeks

Now
7 °F

Clear.


Feels Like: -8 °F
Forecast: 11 / 28 °F
Wind: 10 mph from West

Location: Brandon

Current Time: Jan 17, 2017 at 1:02:31 am

Latest Report: Jan 17, 2017 at 12:00 am


Visibility: 15 mi

Pressure: 30.07 "Hg

Humidity: 85%

Dew Point: 3 °F

Location of BrandonLocation

Past Weather in Brandon — Graph

°F

Brandon Temperature Yesterday

Maximum temperature yesterday: 23 °F (at 3:00 pm)
Minimum temperature yesterday: 7 °F (at 2:00 am)
Average temperature yesterday: 12 °F

High & Low Weather Summary for the Past Weeks

 TemperatureHumidityPressure
High23 °F (Jan 16, 3:00 pm)92% (Jan 16, 11:00 pm)30.73 "Hg (Jan 16, 11:00 pm)
Low-29 °F (Jan 13, 5:00 am)62% (Jan 12, 6:00 pm)29.67 "Hg (Jan 12, 1:42 am)
Average-7 °F75%30.23 "Hg
* Reported Jan 2 12:00 am — Jan 17 12:00 am, Brandon, Weather by CustomWeather, © 2017

Note: Actual official high and low records may vary slightly from our data, if they occured in-between our weather recording intervals... More about our weather records

Advertising

Brandon Weather History for the Previous 24 Hours

Scroll right to see more
 ConditionsComfort  
Time TempWeatherWind HumidityBarometerVisibility
12:00 am
Tue, Jan 17
7 °FClear.10 mph85%30.07 "Hg15 mi
11:00 pm
Mon, Jan 16
7 °FClear.7 mph92%30.09 "Hg15 mi
10:00 pm10 °FClear.9 mph85%30.10 "Hg15 mi
9:00 pm9 °FClear.9 mph85%30.11 "Hg15 mi
8:00 pm12 °FClear.12 mph85%30.12 "Hg15 mi
7:00 pm14 °FClear.9 mph85%30.12 "Hg15 mi
6:00 pm16 °FPassing clouds.10 mph79%30.12 "Hg15 mi
5:00 pm19 °FPassing clouds.13 mph79%30.11 "Hg15 mi
4:00 pm21 °FPassing clouds.10 mph80%30.11 "Hg15 mi
3:00 pm23 °FPassing clouds.12 mph74%30.11 "Hg15 mi
2:00 pm21 °FPassing clouds.12 mph74%30.11 "Hg15 mi
1:00 pm19 °FPassing clouds.10 mph79%30.12 "Hg15 mi
12:00 pm16 °FPassing clouds.9 mph79%30.14 "Hg15 mi
11:00 am12 °FPassing clouds.14 mph79%30.14 "Hg15 mi
10:00 am9 °FScattered clouds.7 mph78%30.14 "Hg15 mi
9:00 am7 °FScattered clouds.10 mph78%30.13 "Hg15 mi
8:00 am7 °FPassing clouds.8 mph78%30.11 "Hg15 mi
7:00 am9 °FPassing clouds.13 mph78%30.10 "Hg15 mi
6:00 am9 °FPassing clouds.12 mph78%30.09 "Hg15 mi
5:00 am9 °FPassing clouds.13 mph78%30.09 "Hg15 mi
4:00 am7 °FPassing clouds.10 mph85%30.08 "Hg15 mi
3:00 am7 °FPassing clouds.14 mph85%30.07 "Hg15 mi
2:00 am7 °FPassing clouds.12 mph85%30.07 "Hg15 mi
1:00 am9 °FPassing clouds.9 mph78%30.05 "Hg15 mi
Weather by CustomWeather, © 2017

See weather overviewHow to use our weather pages